Location: *
(47.6569°N, 7.4256°E)
Time: 11:07:46
(UTC+00:00)

Cosmos 1536 - Pass Details

Date: 14 December 2019
Orbit: 540 x 559 km, 82.5° (Epoch: 25 January)

Event Time Altitude Azimuth Distance (km) Brightness Sun altitude
Rises 16:27:48 0° 351° (N) 2,734 6.2 -8.0°
Reaches altitude 10° 16:29:59 10° 351° (N) 1,832 5.3 -8.3°
Maximum altitude 16:34:01 86° 78° (ENE) 554 2.8 -8.9°
Drops below altitude 10° 16:38:00 10° 171° (S) 1,805 5.6 -9.5°
Sets 16:40:08 0° 171° (S) 2,690 6.5 -9.9°
